RH
15 14 14 12 11 10 8 8 6 6 5 4 4 5 6 7 8 9 10 11 11 11 11 12 12 12 13 14 15 18 20 24 29 33 37 40 42 43 44 44 44 44 44 44 43 42 42 42 42 42 42 42 42 42 42 42 42 42 43 43 43 44 44 44 43 43 42 41 40 38 36 34 33 30 28 26 30 38 47 58 66 73 77 78 78 78
14 13 12 11 10 8 8 6 5 5 5 4 5 6 8 8 10 10 12 12 12 12 12 12 13 14 15 16 19 22 26 30 35 39 42 44 45 46 46 46 46 46 45 44 44 43 43 43 43 44 44 44 44 44 44 45 45 46 46 47 47 48 48 48 48 48 48 48 47 46 44 43 41 39 36 35 38 42 44 38 40 49 59 66 70 73
13 12 10 9 8 7 6 5 5 5 5 6 6 8 10 10 11 12 13 13 13 14 14 14 15 16 18 20 24 28 32 37 41 44 46 47 47 47 47 47 47 47 46 46 45 45 45 46 46 47 47 48 48 48 48 49 49 50 51 52 52 53 53 54 54 54 53 53 52 52 51 50 48 46 43 41 44 50 56 48 46 45 44 49 53 58
11 10 8 8 6 6 5 5 4 5 6 7 8 10 11 12 13 14 14 14 14 15 16 16 18 20 22 26 30 34 38 42 45 47 48 48 48 48 48 48 48 48 48 48 48 48 48 49 50 50 51 51 52 52 52 53 54 55 56 56 58 58 58 59 59 58 58 58 57 56 55 54 54 52 50 48 49 54 66 72 72 68 64 58 55 54
9 8 7 6 6 5 5 5 5 6 8 10 11 12 13 14 14 15 16 16 16 16 17 19 21 24 28 32 36 40 43 46 48 49 49 49 48 48 48 49 49 49 49 49 49 50 50 51 52 53 54 54 55 56 56 57 57 58 59 60 61 62 62 63 63 63 63 63 62 61 60 58 57 56 55 53 53 56 62 72 78 80 80 78 73 68
7 6 6 5 5 5 6 6 7 8 10 12 14 16 16 16 16 16 17 18 19 19 20 23 26 30 34 38 42 44 47 49 50 50 50 49 48 48 48 49 49 49 50 50 50 51 52 53 54 55 56 56 57 58 58 58 59 60 60 61 62 63 64 64 65 66 66 66 66 65 64 63 62 60 58 58 56 55 55 60 68 75 80 81 80 78
6 6 6 6 6 6 7 8 10 12 14 15 18 20 20 19 18 19 19 20 21 23 24 27 31 36 40 44 46 48 50 50 51 50 50 49 48 47 47 48 48 49 49 50 50 51 52 54 55 56 57 58 58 58 59 60 60 60 60 61 62 62 63 64 65 66 66 67 68 68 68 67 66 64 63 62 60 58 57 56 57 59 62 66 68 71
5 5 6 8 8 8 8 12 16 19 20 20 21 22 22 22 22 22 22 23 24 26 29 33 37 42 45 48 50 52 52 52 51 50 49 48 47 46 46 47 47 48 48 49 49 50 52 53 55 56 58 58 59 60 60 60 60 60 60 61 62 62 63 64 64 65 66 67 68 68 68 68 68 67 66 65 64 62 61 60 58 56 55 55 55 56
5 5 6 8 10 12 11 14 20 26 28 26 26 25 24 24 25 26 26 27 29 32 36 40 44 46 49 51 52 53 53 52 51 50 48 46 46 45 45 46 46 46 46 46 47 48 50 52 54 56 58 58 60 60 60 60 60 61 61 62 63 64 64 65 65 66 66 67 67 68 68 68 68 68 67 66 65 64 63 62 61 60 58 57 55 53
7 8 8 11 16 20 22 21 23 26 29 30 30 30 30 29 28 29 30 31 34 37 42 46 49 51 52 53 53 54 54 52 50 49 47 46 45 44 44 45 45 45 44 44 44 46 48 51 54 56 58 59 60 60 61 61 62 62 63 64 65 66 67 67 67 67 68 68 68 68 67 67 66 66 66 65 65 64 64 63 62 61 60 60 58 58
10 12 14 17 23 29 34 31 30 28 30 32 33 34 35 34 34 34 35 36 39 43 47 50 53 54 54 54 54 54 53 51 49 48 46 45 44 44 44 44 44 43 42 42 43 44 47 51 54 57 58 60 61 62 63 63 64 64 65 66 68 68 69 70 70 69 69 69 68 68 67 66 65 64 64 63 63 62 62 62 62 61 61 60 60 60
16 20 24 28 32 34 36 35 34 34 34 34 34 34 35 37 39 40 42 44 46 49 52 54 55 56 56 56 55 54 52 51 49 47 45 44 43 43 43 43 42 42 42 42 42 44 48 51 54 57 60 61 63 64 65 66 66 67 68 69 70 70 71 71 71 71 70 70 69 68 67 66 64 63 62 61 60 60 60 60 60 60 60 60 60 60
28 34 39 40 39 37 35 34 34 35 36 36 37 38 39 42 44 47 49 51 52 54 56 57 56 56 56 57 56 55 54 52 49 46 44 42 42 42 42 42 41 40 40 41 42 44 48 52 56 58 60 62 64 66 67 68 68 69 70 71 71 72 72 72 72 72 72 71 70 69 68 66 64 62 61 60 60 60 59 59 60 60 60 60 60 60
40 42 43 42 39 36 34 34 35 36 38 40 42 44 46 48 50 53 55 56 57 58 60 60 58 57 56 56 56 57 56 54 50 46 42 40 40 40 41 41 40 40 40 42 43 46 50 54 57 60 62 64 66 67 68 69 69 70 70 70 70 70 70 71 72 72 72 72 72 71 70 68 66 64 62 61 60 60 60 60 60 60 60 60 61 61
44 43 41 39 37 35 34 36 38 40 42 44 47 50 52 54 56 58 60 60 61 61 62 61 59 57 55 56 57 58 60 57 52 46 41 38 38 39 42 42 40 40 41 43 45 48 52 56 60 62 64 66 68 70 70 70 70 69 69 68 68 68 68 68 69 70 70 70 71 70 70 68 67 65 64 62 62 61 61 60 60 60 60 61 61 61
41 40 40 37 36 36 38 41 44 46 48 51 54 57 58 60 61 62 64 64 65 65 65 63 60 57 53 54 56 59 61 60 54 48 42 37 36 38 43 44 42 42 42 45 48 51 55 59 62 66 68 70 72 73 73 72 70 69 68 67 66 66 66 67 67 67 68 68 68 68 68 67 66 65 64 64 63 62 62 62 62 62 62 62 61 60
36 37 37 37 38 40 44 47 50 53 55 58 60 62 64 64 66 66 68 68 68 68 67 66 63 60 54 52 53 57 61 60 56 50 43 38 37 39 44 46 45 44 43 46 50 54 58 62 66 70 73 74 75 74 74 72 70 69 68 67 66 66 66 66 66 66 66 66 66 66 66 65 64 64 63 63 62 62 62 62 63 63 62 62 60 58
35 36 38 40 44 48 51 54 56 59 62 65 66 67 67 68 68 70 70 70 71 71 70 68 66 63 58 55 53 55 60 60 57 51 44 40 38 40 44 47 47 46 46 48 53 58 62 66 70 74 76 78 77 76 74 72 71 70 68 68 68 68 68 67 67 66 66 65 65 64 64 63 63 62 62 62 62 62 63 63 63 63 62 61 60 57
38 40 44 48 52 55 58 60 62 66 69 70 71 71 70 70 70 70 71 72 73 73 73 71 68 65 62 58 56 56 60 60 58 53 47 42 40 40 44 48 48 47 47 51 55 60 64 68 73 77 80 80 78 76 74 74 72 72 71 71 71 71 71 70 70 69 69 68 67 66 66 65 65 65 65 64 64 64 64 64 63 63 62 61 59 56
44 47 52 56 59 62 63 65 68 71 73 74 74 74 73 72 71 72 72 74 74 74 74 72 69 66 63 60 58 57 60 61 60 55 50 44 42 42 46 48 49 48 49 53 58 62 66 71 76 80 81 80 79 78 76 76 74 74 74 74 74 74 74 74 74 74 73 72 72 71 70 70 70 69 69 68 68 67 66 66 65 64 63 61 59 56
51 55 58 62 65 68 69 70 72 74 76 76 76 76 74 74 74 74 74 76 75 74 73 72 70 67 64 62 60 60 62 63 62 58 54 47 43 43 47 50 50 50 51 54 58 64 68 74 79 82 83 82 81 80 79 78 76 76 76 76 76 76 76 76 76 76 75 75 74 74 74 74 74 74 73 73 72 71 70 68 67 65 63 60 58 54
58 61 64 68 71 73 74 74 75 76 77 78 78 77 76 77 76 76 76 76 75 74 74 72 70 67 66 64 62 62 63 65 66 64 60 53 47 45 48 52 53 53 53 56 60 65 70 76 82 85 85 84 83 82 80 78 78 77 76 76 76 76 76 76 76 76 76 76 77 77 77 77 77 77 77 76 76 76 74 73 71 69 66 62 58 54
65 67 70 74 76 77 78 78 78 78 79 80 80 80 80 80 79 78 76 76 75 74 74 72 69 67 66 65 64 63 64 67 70 70 68 62 54 49 50 54 55 54 54 58 62 66 71 78 84 86 85 84 83 82 81 80 80 80 79 79 78 78 77 77 77 77 78 78 79 79 80 80 80 79 79 78 78 77 77 76 76 75 73 70 66 61
71 74 76 78 80 81 81 81 81 81 81 82 82 82 82 81 80 79 77 76 76 76 74 72 69 67 65 64 64 63 64 69 74 76 76 70 62 55 53 56 56 56 56 60 63 67 72 79 84 86 85 85 84 84 84 84 84 84 84 83 83 82 81 80 80 80 80 81 81 82 82 82 82 82 82 81 80 79 79 78 78 77 77 76 74 72
76 79 81 82 83 83 83 83 83 83 83 83 83 82 81 80 79 78 77 77 78 78 76 74 71 68 65 65 64 64 65 70 76 80 80 74 64 57 54 57 58 58 58 60 63 67 72 79 84 86 86 86 86 86 86 86 86 86 86 86 86 86 85 85 84 84 84 84 84 84 83 83 83 83 82 82 82 82 81 80 80 79 78 77 77 76
80 82 83 83 83 83 83 83 83 84 84 84 84 83 82 81 79 78 77 79 80 79 77 74 71 68 66 67 66 65 65 70 76 81 82 76 66 58 55 58 60 60 59 60 63 66 71 78 83 86 87 87 87 87 87 88 88 88 88 87 87 87 87 86 86 86 86 86 86 86 86 85 84 84 83 83 82 82 82 82 82 82 81 80 78 77
80 81 81 81 80 80 80 79 80 81 83 84 84 84 84 83 81 80 79 80 80 79 77 74 72 69 69 69 68 66 65 69 76 81 82 76 68 61 58 60 61 62 62 61 62 65 69 76 81 85 86 87 88 88 88 88 88 88 88 88 87 87 87 86 86 86 86 86 86 87 87 87 86 86 86 85 84 84 84 84 84 83 83 82 80 78
77 77 76 76 76 76 76 77 78 80 82 84 84 85 85 84 83 82 80 80 79 78 76 74 74 73 73 73 70 67 64 69 76 82 81 76 70 65 62 63 64 64 64 62 62 63 66 73 78 83 85 86 87 87 86 86 87 87 87 87 87 87 86 84 82 82 82 82 84 85 86 87 87 88 88 87 87 87 86 86 86 86 85 83 81 78
73 73 72 73 74 75 76 77 79 81 82 84 84 84 84 84 83 82 80 80 79 78 76 76 76 77 78 76 71 66 63 69 78 83 82 78 73 69 66 66 66 66 67 65 62 60 61 68 75 80 82 84 84 84 84 83 84 84 84 85 85 85 83 81 79 78 78 80 81 83 84 86 87 88 88 88 88 88 88 88 88 88 86 84 82 79
69 69 70 71 74 76 77 79 80 81 82 82 83 82 82 81 80 80 79 80 80 80 79 79 80 81 80 76 71 66 61 69 78 84 83 80 75 71 68 68 68 68 70 69 64 59 56 62 70 76 80 80 80 80 80 79 79 79 79 80 80 81 80 80 79 78 79 80 82 83 84 86 87 88 88 88 88 88 88 88 88 88 88 86 83 80
67 68 70 72 75 77 78 79 80 80 80 80 80 79 78 78 78 79 80 81 82 82 82 82 82 81 78 75 71 67 63 70 78 85 84 80 76 72 70 70 69 70 72 74 71 65 57 58 63 71 76 76 76 76 76 76 76 76 76 76 76 77 78 78 78 78 79 80 82 83 85 86 87 88 89 89 89 89 89 88 88 88 88 87 84 82
69 71 73 75 76 78 79 79 80 79 78 77 76 76 76 76 78 81 82 82 83 84 84 83 81 78 75 73 71 69 67 74 80 84 84 81 77 74 72 71 71 71 73 76 76 74 68 61 60 64 69 71 72 72 72 73 73 73 73 73 73 74 75 76 76 77 78 79 80 82 84 85 87 88 89 89 89 89 89 89 89 88 89 87 85 82
72 74 76 76 78 78 79 79 78 77 76 74 74 74 74 77 80 82 83 83 84 84 84 82 79 76 73 72 72 72 72 78 82 85 84 82 79 76 74 74 73 73 74 76 78 78 76 70 66 64 64 66 67 68 70 70 71 71 72 72 72 72 73 74 75 76 76 78 79 80 82 84 86 88 89 89 89 89 89 89 89 89 89 88 86 84
74 76 76 77 77 77 77 77 76 74 73 72 72 73 76 79 82 83 83 83 83 83 82 80 78 76 74 74 74 75 76 82 84 85 85 84 81 78 76 76 76 76 76 77 78 78 77 74 72 69 65 63 64 66 68 69 70 70 71 72 72 72 72 73 74 75 76 77 78 80 82 84 85 86 88 88 89 89 89 89 89 88 88 88 88 86
76 76 76 76 76 76 76 74 73 71 70 69 71 74 76 79 81 81 81 81 80 79 78 78 77 77 77 78 79 79 80 83 85 85 85 84 83 80 77 77 77 78 79 79 79 79 78 76 75 74 70 65 63 64 66 68 69 70 71 71 71 71 72 73 74 75 76 77 78 81 83 84 85 86 87 88 88 89 89 89 89 89 88 88 88 88
76 76 76 76 76 74 74 72 69 68 66 68 70 72 75 76 77 76 76 75 74 74 74 76 76 78 80 82 83 83 83 84 85 85 85 85 84 82 80 78 79 80 82 82 81 80 79 77 76 75 74 70 66 64 64 66 67 68 68 68 68 69 70 72 74 76 76 78 80 82 84 86 86 86 86 88 88 88 88 88 89 89 89 88 88 88
76 76 76 76 76 74 72 69 66 65 64 66 68 71 72 73 73 72 71 70 70 70 72 74 76 78 81 83 84 84 85 85 85 86 85 85 85 84 82 81 81 83 85 85 84 83 81 79 77 76 74 72 69 66 64 64 64 64 64 64 65 67 69 72 74 76 78 80 82 84 86 87 87 86 86 86 87 88 88 88 88 89 89 89 89 89
76 76 76 76 75 73 70 67 65 64 65 67 69 71 72 72 72 71 69 68 68 69 71 73 74 77 81 83 84 84 85 85 86 86 85 85 85 84 84 82 82 84 86 86 86 85 84 82 80 77 74 72 69 67 64 62 61 60 60 60 62 65 68 71 74 76 79 81 84 86 87 87 87 86 86 86 87 88 88 88 88 88 88 88 88 88
76 76 76 76 75 73 69 66 65 66 68 70 72 74 74 74 74 72 69 68 69 70 71 72 74 76 79 82 84 85 85 85 85 85 85 85 85 85 85 84 84 84 86 86 86 86 86 84 82 79 76 72 68 65 62 60 60 59 58 58 60 64 67 71 74 77 80 82 84 86 86 86 86 86 86 86 88 88 88 87 87 87 87 85 84 83
74 76 76 76 75 73 70 68 68 69 72 74 76 76 76 76 73 70 68 68 70 70 71 72 73 75 77 81 84 86 86 86 86 86 86 85 85 85 85 85 85 85 85 86 86 86 86 84 82 80 77 74 70 65 60 60 60 60 60 61 62 63 66 70 73 76 80 83 85 86 87 86 86 86 86 88 89 89 89 88 88 87 88 86 85 83
74 76 77 77 76 74 70 69 70 73 76 76 77 77 76 72 68 64 64 66 68 70 70 72 74 75 76 79 83 86 86 86 86 86 86 85 85 85 86 86 86 86 85 85 84 85 85 84 82 80 78 76 72 67 62 61 61 62 64 64 64 64 65 68 72 76 80 83 86 88 88 87 86 85 87 88 89 89 89 89 89 89 89 89 88 87
74 75 76 77 76 74 72 71 72 75 78 78 78 75 72 67 64 62 64 66 69 71 72 74 74 75 75 77 80 83 85 86 86 86 86 86 85 86 86 86 86 86 86 85 84 84 84 84 83 81 79 77 74 70 65 63 63 64 66 67 66 65 64 67 71 76 81 84 86 88 88 86 85 86 88 89 90 90 89 90 90 90 90 88 86 83
74 74 76 76 76 76 74 74 74 76 77 77 76 73 69 66 64 65 66 69 71 72 74 76 76 76 76 76 76 78 82 84 86 86 86 86 85 86 86 86 86 86 86 85 84 83 83 83 83 82 80 78 76 74 70 67 66 66 66 67 67 66 65 67 71 76 81 84 86 88 88 86 86 87 89 90 90 90 90 90 90 89 86 84 82 80
74 74 74 75 76 76 76 76 76 77 78 76 75 73 70 67 67 67 69 70 72 73 75 76 77 76 76 76 76 77 78 80 83 85 85 85 86 86 86 86 86 86 86 86 85 84 83 82 82 82 81 80 78 76 74 71 69 67 66 65 65 66 66 69 73 76 80 83 86 87 88 87 87 88 90 90 90 89 88 87 84 82 81 82 82 83
74 74 74 74 75 76 76 77 78 79 79 78 76 74 71 69 68 69 70 72 73 74 76 77 78 77 76 77 78 78 77 78 79 80 81 81 82 84 85 86 86 86 86 86 86 86 85 84 82 82 81 80 80 78 76 73 70 66 64 63 63 64 66 70 75 79 82 84 86 88 88 88 88 88 89 87 86 85 86 85 84 82 82 83 85 86
76 76 76 76 76 76 76 78 80 80 80 79 77 74 72 70 69 70 72 74 74 76 76 78 78 78 78 78 78 79 78 77 76 76 76 76 77 78 81 84 85 86 86 86 86 86 86 86 85 84 82 80 78 76 74 72 69 66 62 62 62 64 67 72 76 80 83 85 87 88 88 88 88 88 86 80 79 81 86 87 87 86 86 87 88 89
79 78 78 77 76 76 76 78 79 80 80 79 76 73 70 68 69 71 74 76 76 77 77 78 78 78 78 78 79 80 81 78 76 74 74 72 72 74 76 78 80 82 82 83 83 83 83 83 83 82 82 79 76 74 71 69 67 65 63 62 63 65 69 73 76 80 83 86 88 88 88 87 87 85 79 74 74 79 87 88 89 88 89 89 89 88
81 80 80 78 77 76 76 76 77 78 77 74 71 69 67 68 70 74 76 78 78 78 78 78 78 78 77 77 78 80 82 80 77 74 72 70 70 70 72 74 74 76 76 77 77 77 76 76 77 78 78 77 75 72 69 67 66 64 63 63 65 68 71 74 76 80 83 86 88 88 88 88 87 84 75 67 69 77 87 88 89 89 88 87 85 82
83 82 81 79 77 76 75 74 74 74 72 69 67 66 68 70 74 77 79 79 79 78 78 79 79 79 78 76 76 77 78 76 74 72 70 70 70 70 70 71 71 71 71 71 72 72 71 71 72 74 76 76 76 73 70 68 66 65 64 66 68 70 73 74 77 80 83 86 88 88 88 88 88 86 80 70 71 77 87 89 90 88 84 79 74 69
84 82 81 79 76 74 73 72 71 70 69 68 69 70 72 74 77 79 80 80 79 78 78 79 80 80 79 78 77 76 76 73 70 69 69 71 72 72 72 71 70 70 68 68 67 67 66 66 66 68 73 76 77 76 73 71 69 68 67 68 70 73 74 76 77 80 83 86 88 89 89 88 88 88 84 78 76 78 83 88 89 87 82 76 70 66
84 82 80 78 76 73 71 70 69 70 70 72 74 76 77 78 79 80 80 79 78 77 77 78 79 80 80 79 78 76 75 73 71 70 71 73 74 74 74 73 72 72 70 68 67 66 65 63 62 63 67 74 78 79 78 76 74 73 71 71 72 74 76 76 78 81 84 86 88 89 89 89 88 88 86 83 81 80 82 86 88 87 85 82 77 73
Wind_Speed
58 58 58 57 57 57 57 57 56 56 57 57 56 55 54 53 53 52 51 49 48 48 48 47 47 46 44 43 41 40 38 37 36 36 35 34 34 34 34 35 35 36 36 37 37 38 38 38 39 39 39 39 39 39 39 39 39 39 39 40 40 40 40 40 41 41 41 42 43 43 43 44 45 46 47 48 49 51 54 56 57 58 58 58 57 56
57 58 57 57 56 56 57 57 56 55 55 55 55 54 53 52 51 50 49 48 47 47 46 46 45 44 42 41 39 38 37 36 35 34 33 33 32 32 33 33 34 34 35 36 36 37 38 38 38 39 39 39 39 39 40 40 40 40 40 40 40 40 40 41 41 41 41 42 42 42 42 43 43 44 44 44 45 47 50 53 56 58 60 61 62 62
57 57 57 57 56 56 56 56 56 55 54 54 53 52 51 50 49 48 47 47 46 46 45 44 43 42 41 39 38 37 36 35 34 32 32 31 31 31 31 32 33 33 34 35 36 37 37 38 38 39 39 39 40 40 40 40 41 41 41 41 41 42 42 42 42 42 42 42 43 43 43 43 43 43 43 43 42 42 43 45 47 50 54 57 60 63
56 56 57 57 56 56 55 55 54 54 53 52 51 51 49 48 48 47 46 45 45 45 44 43 41 40 39 38 37 36 35 34 32 31 30 30 30 30 31 32 32 33 33 34 35 36 36 37 38 38 38 39 40 40 40 41 41 41 42 42 42 43 43 43 43 44 44 44 44 44 44 43 43 43 43 42 41 40 39 39 41 43 46 48 51 55
56 56 56 56 55 55 55 54 53 52 52 51 50 49 48 47 46 46 46 45 44 44 43 42 40 39 39 38 37 36 34 32 31 30 29 29 30 30 31 31 32 32 33 33 34 35 36 36 37 37 38 38 39 40 40 41 41 41 42 42 43 43 44 44 44 45 45 45 45 45 45 45 44 44 43 42 41 40 39 39 40 41 43 44 45 47
56 55 55 54 54 54 53 53 52 51 50 49 49 47 46 46 45 45 45 45 44 43 42 41 40 39 38 37 36 35 33 32 30 30 30 30 30 31 31 31 31 32 32 33 34 35 35 36 36 37 37 38 39 39 40 41 41 42 42 43 43 44 44 45 45 45 45 45 46 46 46 45 45 45 44 43 42 41 41 41 41 42 43 44 45 46
55 55 54 53 53 53 52 51 50 49 48 48 48 47 46 45 45 45 44 44 44 43 41 40 39 38 37 37 35 34 33 31 30 30 30 30 31 31 31 31 31 32 32 33 34 34 35 35 36 36 37 37 38 39 40 40 41 42 42 43 43 44 44 45 45 45 45 45 45 45 45 45 45 45 45 44 43 43 42 42 42 43 44 45 46 47
54 54 53 52 51 51 51 50 49 47 46 46 47 47 47 46 45 45 44 43 43 42 41 40 39 38 37 36 35 33 32 31 31 30 31 31 31 32 32 32 32 32 33 33 34 34 34 34 35 35 35 36 37 38 38 39 40 41 42 42 43 43 44 44 44 44 44 44 44 44 44 44 44 44 44 44 44 43 43 42 42 42 43 44 45 47
53 52 52 51 50 49 49 49 48 47 45 45 46 46 46 46 46 45 44 43 42 41 40 40 39 37 36 35 34 33 32 31 31 31 31 32 32 32 32 32 32 32 33 33 33 33 33 33 33 34 34 34 35 36 37 37 38 39 40 41 42 42 42 43 43 43 43 43 43 43 43 43 43 43 43 43 43 43 42 42 42 42 42 42 43 44
52 51 50 50 49 48 47 47 47 47 46 46 46 45 45 45 45 44 44 43 41 40 39 39 38 37 36 34 33 33 32 31 31 31 32 33 33 33 33 33 33 33 33 33 33 32 32 32 33 33 33 33 34 35 35 36 37 38 39 40 41 41 41 41 41 41 41 41 41 41 41 41 41 42 42 42 42 42 42 42 42 42 42 42 42 43
50 50 49 48 48 47 46 46 46 46 45 45 45 45 43 42 42 43 43 43 41 40 38 37 37 36 36 35 34 33 33 32 31 31 32 33 34 34 34 34 34 33 33 33 32 32 32 32 32 33 33 33 33 34 35 35 36 37 38 39 39 40 40 40 40 40 40 40 40 40 40 41 40 40 40 41 41 41 41 41 41 41 41 41 41 42
48 48 47 47 46 46 46 47 46 46 45 44 43 43 42 41 40 41 42 42 41 40 38 37 35 35 35 35 35 34 34 33 32 32 32 33 34 35 36 35 34 33 33 33 33 32 32 33 33 33 33 33 33 34 34 35 36 36 37 38 39 39 39 40 40 40 40 40 40 40 40 40 40 40 40 40 40 40 40 40 40 40 40 40 40 41
46 46 46 46 46 46 46 46 46 45 43 42 41 40 40 40 40 40 41 41 41 39 38 37 36 35 34 35 36 36 35 34 33 33 33 34 35 36 37 36 35 34 34 34 34 33 33 33 33 33 33 33 33 34 34 35 36 36 37 38 38 39 39 40 40 41 41 41 41 41 41 41 41 40 40 40 40 40 40 40 40 39 40 40 40 40
44 45 45 46 46 46 45 44 43 42 41 39 39 39 40 40 40 40 41 40 40 38 38 37 36 35 35 35 36 37 38 37 35 34 33 34 35 37 38 38 37 36 35 35 35 34 34 34 34 34 34 33 34 34 35 35 36 37 37 38 38 39 40 40 41 41 41 42 42 42 42 42 41 41 41 41 40 40 40 39 39 39 39 39 39 39
43 44 45 46 46 45 43 42 41 40 39 38 38 38 39 39 40 40 40 40 39 38 37 37 37 36 35 36 37 38 39 39 38 36 35 35 35 37 39 39 38 37 36 36 36 35 34 34 35 35 34 34 34 34 35 36 37 38 38 39 39 40 40 41 41 42 42 42 43 43 43 42 42 42 42 41 41 40 40 39 39 38 38 37 37 37
44 44 45 45 44 43 41 39 38 38 38 37 37 38 38 39 39 39 39 39 38 38 37 38 38 37 36 36 36 38 40 41 40 38 37 36 36 37 39 40 39 38 37 36 36 35 35 35 35 35 34 34 33 33 34 35 36 38 38 39 40 40 41 41 42 42 42 43 43 43 43 43 43 42 42 42 41 40 40 39 38 37 36 35 35 34
43 43 44 43 42 41 39 37 36 36 36 37 37 37 38 38 38 38 38 37 37 37 37 38 39 40 40 38 36 37 40 41 41 40 39 38 38 37 38 39 40 39 37 36 35 35 35 35 35 34 32 31 31 32 33 34 35 36 37 38 39 39 39 40 40 41 41 42 42 42 43 43 42 42 42 42 41 40 39 38 37 35 34 33 32 32
42 42 42 41 40 38 37 36 35 35 35 36 36 37 37 37 37 36 36 36 36 37 37 39 40 41 42 41 39 38 39 41 41 41 40 40 39 38 38 39 39 39 37 36 35 35 35 35 33 31 30 29 29 30 31 32 34 35 35 36 36 37 37 37 37 38 38 39 39 40 41 41 41 41 41 41 40 39 38 37 36 34 33 32 31 30
41 40 39 38 37 36 35 34 34 34 34 35 36 36 36 35 35 35 35 35 36 37 38 39 41 42 43 43 41 39 39 40 41 41 41 41 39 38 38 38 38 38 37 35 35 35 35 33 30 28 26 26 27 28 29 31 32 32 33 33 33 33 33 33 33 33 33 34 35 36 36 37 38 38 38 38 38 37 37 35 34 33 32 31 30 29
40 38 36 35 34 34 34 33 33 33 33 34 35 35 35 34 34 34 34 35 36 37 39 40 42 43 44 43 42 40 39 39 39 40 41 41 40 38 38 38 38 37 36 35 35 35 34 31 27 25 24 24 25 27 28 29 30 30 30 30 30 29 29 28 28 28 28 28 29 30 31 31 32 33 33 34 34 34 33 33 32 31 31 30 29 28
38 36 33 32 32 33 33 32 32 31 32 32 33 33 34 34 34 34 35 35 37 38 40 41 43 44 44 44 42 40 38 38 38 40 41 41 40 39 38 38 38 37 36 35 34 33 31 28 25 23 22 23 24 25 26 27 27 28 28 27 27 26 26 25 25 24 24 24 24 25 25 26 26 27 27 28 28 29 29 29 29 29 28 28 27 27
35 33 31 30 30 30 31 31 31 30 30 31 31 32 33 34 34 35 36 37 38 39 41 42 43 44 44 43 41 39 37 36 37 39 41 42 41 40 38 38 38 38 36 35 34 32 28 25 22 20 20 21 22 23 24 24 25 25 25 25 25 25 24 24 24 23 23 23 23 23 23 23 23 24 24 24 24 25 25 25 26 26 26 26 26 26
32 31 30 29 28 29 29 29 29 29 29 29 30 31 32 33 35 36 37 38 39 40 42 43 44 44 43 42 40 37 35 35 36 38 41 43 43 41 39 38 38 37 36 35 33 30 25 21 19 18 18 19 20 21 21 22 22 22 23 23 23 24 24 24 24 24 24 24 24 24 24 24 24 24 24 24 24 24 24 24 24 24 24 24 25 25
30 29 28 27 27 27 27 28 28 28 28 29 30 31 32 33 35 36 37 38 40 41 42 43 44 43 42 40 37 35 34 34 35 38 40 42 43 41 39 38 38 37 35 34 32 28 23 18 16 15 16 17 17 18 18 19 19 19 20 21 22 22 23 23 24 24 24 24 24 24 24 24 24 24 25 24 24 24 24 24 24 24 24 24 24 24
28 27 26 26 25 25 25 26 27 27 28 29 30 32 33 34 35 36 37 39 40 41 42 43 43 42 40 37 35 34 33 33 34 36 39 41 42 40 38 38 38 37 35 32 29 25 20 16 14 13 14 15 15 16 16 16 16 17 18 19 20 21 22 22 23 23 24 24 25 25 25 25 25 25 25 25 25 25 25 25 25 25 25 25 25 25
25 25 24 24 24 24 25 26 27 27 28 30 31 32 33 34 36 37 37 38 39 40 40 41 40 39 37 35 34 33 33 33 33 35 38 40 41 40 38 37 37 37 35 31 27 23 18 14 12 12 13 13 14 14 15 15 15 16 17 18 19 20 20 21 21 22 23 24 24 25 25 26 26 26 26 26 26 26 26 26 26 26 26 26 26 26
23 23 23 23 24 25 26 27 27 28 29 29 31 32 33 35 36 37 37 37 37 38 38 38 37 36 35 34 34 33 33 32 33 35 37 39 40 39 38 37 37 37 35 31 26 21 17 14 12 12 12 13 14 15 16 16 17 17 17 18 18 19 19 19 20 20 21 22 23 24 24 25 26 26 27 27 27 27 27 27 27 27 28 28 29 29
21 22 23 24 25 26 27 28 28 28 29 29 30 31 33 34 35 36 36 35 35 35 34 34 34 34 34 34 34 34 33 32 33 35 37 39 40 39 38 38 38 37 36 31 25 19 16 14 13 13 13 14 15 16 17 18 18 18 18 19 19 20 20 20 20 21 21 22 23 24 25 25 26 27 27 27 27 27 27 27 28 28 29 30 31 31
22 23 25 26 27 28 28 28 28 28 29 29 30 31 32 33 33 34 33 33 32 31 31 30 31 32 34 35 35 35 33 32 32 34 37 38 39 39 38 38 38 37 36 32 25 18 14 13 14 14 14 15 16 17 19 19 20 20 20 20 21 21 22 22 22 23 23 24 25 26 27 28 28 28 28 28 28 28 28 28 28 29 30 31 32 33
24 25 26 27 28 28 28 29 29 28 29 29 29 30 31 31 31 31 30 29 28 28 28 29 30 32 34 36 37 36 34 32 32 34 36 38 39 39 38 38 37 37 36 34 28 20 14 11 12 14 16 16 17 18 19 20 21 22 22 22 22 23 24 25 25 26 26 27 28 29 30 30 30 30 30 30 30 29 29 28 28 29 30 31 33 34
26 27 28 28 28 29 29 29 29 29 29 29 29 29 29 29 28 27 26 25 25 26 27 29 31 32 34 36 37 37 35 32 32 33 35 37 39 39 38 38 37 36 36 35 32 27 19 13 11 13 15 17 17 18 20 21 23 23 24 24 25 25 26 27 28 29 29 30 31 31 31 32 32 32 32 32 31 30 30 29 28 28 30 31 32 33
27 28 28 29 29 29 29 29 29 29 29 28 28 27 26 25 24 24 23 23 24 25 28 30 31 33 34 35 36 36 35 33 32 33 35 37 39 39 39 39 38 37 35 34 33 31 27 21 17 15 16 17 18 19 21 22 24 25 26 27 27 28 29 30 31 31 32 32 32 32 33 33 33 33 32 32 32 31 30 29 28 28 29 30 31 32
29 29 29 29 29 29 29 29 29 28 28 27 26 24 23 22 22 22 22 23 24 26 28 31 32 33 34 35 35 34 33 32 32 33 35 37 38 39 39 38 38 37 35 33 31 30 30 27 24 22 20 19 19 20 22 24 26 27 28 29 30 30 31 32 33 33 34 34 34 33 33 33 33 33 32 32 32 31 30 29 28 28 29 29 30 31
30 29 29 29 28 28 28 28 28 27 26 25 23 22 21 20 20 21 22 23 25 27 29 31 32 33 34 34 33 32 31 30 31 32 34 36 38 38 38 38 37 36 35 33 31 30 29 28 27 26 24 22 21 21 23 25 27 29 30 31 32 33 33 34 35 35 35 35 35 34 34 34 33 33 32 32 31 30 30 29 28 27 27 28 29 30
30 29 29 28 28 28 27 27 26 25 24 23 21 20 19 19 20 21 22 24 25 27 29 31 32 32 32 32 32 31 30 29 30 31 32 34 36 37 37 37 36 35 34 33 31 30 29 28 27 27 26 25 24 23 24 26 28 29 31 32 33 34 35 36 37 37 37 36 36 35 34 34 33 33 32 31 31 30 29 28 27 27 27 27 28 29
29 28 28 27 27 27 26 25 24 23 22 20 19 19 19 20 21 22 23 24 26 27 29 30 30 30 29 29 29 29 29 29 29 29 31 32 34 35 36 35 35 34 33 32 31 31 30 29 28 27 28 28 27 26 26 27 28 30 31 32 33 35 36 37 37 38 38 37 36 35 35 34 34 33 32 31 30 29 28 28 27 26 26 26 26 27
28 27 26 26 26 26 25 23 22 21 20 19 19 19 20 20 21 22 23 24 25 27 28 29 29 28 27 26 27 27 28 28 28 28 29 30 32 33 34 34 33 32 32 31 31 31 30 30 29 29 28 29 29 29 29 29 30 31 32 33 34 35 36 37 37 38 38 37 36 36 35 34 34 34 33 32 30 29 27 26 25 25 25 25 26 27
26 26 26 26 25 24 23 22 20 19 19 19 19 19 20 21 21 22 23 24 25 27 28 28 28 27 25 25 25 26 27 27 28 28 28 29 30 31 32 32 32 31 30 30 30 30 30 30 31 31 30 30 30 30 31 32 32 33 34 35 35 36 37 37 37 38 38 37 36 35 35 34 34 34 33 31 30 28 26 24 23 23 24 25 27 28
26 25 25 25 24 23 22 20 19 18 18 19 19 20 21 21 22 22 23 24 25 27 28 28 27 26 25 24 25 25 26 27 27 27 27 27 28 29 30 30 30 29 28 28 28 28 29 30 31 32 32 32 32 32 32 33 34 36 37 37 37 37 37 38 38 38 37 37 36 35 35 35 35 34 33 31 29 27 25 23 21 21 21 23 25 27
25 25 25 24 23 22 20 19 18 18 18 19 19 20 21 22 22 23 23 24 26 27 28 28 27 26 25 24 24 25 26 26 26 26 26 27 27 27 28 28 28 28 27 26 26 27 28 29 30 31 33 34 34 34 34 34 35 37 38 40 40 40 39 38 38 38 37 37 36 36 36 35 35 34 32 30 28 28 27 25 22 21 20 20 22 23
26 26 25 24 23 21 20 19 18 18 19 19 20 21 22 23 24 25 25 25 26 27 28 28 27 26 24 23 24 24 25 26 26 26 26 26 26 26 26 26 27 26 26 26 25 25 26 28 29 31 32 33 34 35 35 35 36 37 39 41 42 42 41 40 39 38 37 36 36 36 36 35 34 32 30 28 27 27 27 25 23 21 20 19 19 20
27 26 26 24 23 21 20 19 18 19 19 20 21 23 24 26 27 27 27 26 27 27 28 29 28 27 25 23 22 23 24 25 26 26 26 26 26 26 25 25 25 25 25 25 25 25 26 27 28 30 31 33 35 36 36 36 37 37 39 40 42 43 42 41 39 38 37 36 35 35 35 35 33 31 28 27 26 26 25 23 22 21 20 19 19 20
27 27 26 25 24 22 20 19 19 19 20 21 22 24 26 27 28 29 28 28 28 28 29 29 29 28 26 24 22 22 23 24 25 26 27 27 26 26 25 25 24 24 25 25 25 25 25 26 27 29 31 33 35 36 38 38 38 38 39 40 42 43 43 42 39 37 36 35 34 34 34 34 32 29 26 25 24 23 22 21 20 20 21 21 22 23
28 28 27 26 25 23 21 20 20 20 20 21 23 24 25 27 28 28 28 28 28 29 29 30 29 28 27 25 24 23 23 23 24 25 26 27 27 26 26 25 24 24 24 25 25 26 26 26 27 29 30 33 35 36 38 39 40 40 40 41 41 42 42 42 40 37 35 34 33 33 33 32 30 27 23 22 21 21 20 20 20 21 22 23 24 24
29 28 27 26 25 24 22 21 20 20 21 22 23 24 25 26 27 28 28 29 29 29 30 30 30 29 28 26 25 24 24 24 25 25 26 27 27 27 26 26 25 24 24 24 25 26 27 28 28 29 31 33 34 36 38 39 40 41 41 41 41 41 41 40 38 36 35 34 33 33 32 31 29 25 22 20 19 18 18 19 20 21 22 22 22 22
30 29 28 26 25 24 23 22 21 21 21 22 23 24 25 26 27 28 28 29 29 30 30 30 30 30 29 27 26 26 27 26 26 27 27 27 27 27 27 26 26 25 25 24 25 25 26 28 29 30 32 33 34 35 37 38 40 41 41 41 41 40 39 37 36 35 34 34 33 32 31 29 27 24 22 19 18 17 18 19 20 20 20 20 20 20
31 29 28 26 25 23 23 22 22 22 22 23 23 24 25 26 27 28 28 29 29 30 30 30 30 30 28 27 27 28 28 29 29 28 28 28 28 27 27 26 26 25 25 25 25 25 26 27 28 30 32 33 34 35 36 37 38 39 40 40 40 39 37 35 34 33 32 33 32 32 30 28 26 23 20 18 17 18 19 19 19 19 19 20 20 22
31 29 28 26 25 24 23 22 22 22 23 23 24 24 25 26 27 28 28 29 29 30 30 30 30 30 28 27 27 27 29 29 30 30 30 30 29 28 27 27 26 25 25 25 25 25 25 26 27 28 30 32 33 34 35 35 36 37 37 38 37 37 36 34 32 31 31 31 31 30 29 28 27 24 20 18 17 18 20 20 20 20 21 23 24 25
31 29 27 26 25 24 23 23 23 23 23 24 24 25 25 26 27 28 28 29 30 30 30 31 31 30 29 28 27 27 28 29 30 31 31 31 31 30 28 27 27 26 25 25 25 24 24 24 24 25 27 29 31 32 34 34 34 35 35 35 35 35 34 32 31 31 31 31 30 29 28 26 25 23 21 19 19 19 20 20 21 22 24 25 26 26
30 29 27 26 25 24 23 23 23 23 24 24 25 26 26 26 27 28 29 29 30 30 30 30 31 31 30 29 28 28 28 30 31 32 32 32 32 31 29 28 27 27 26 25 25 25 24 23 22 22 23 26 28 30 32 33 34 34 34 34 34 34 33 32 31 31 31 31 30 28 26 24 22 21 20 20 19 19 19 19 20 22 25 26 26 25
29 28 27 25 24 24 24 24 24 24 25 25 26 27 27 28 28 29 30 30 30 29 29 29 29 30 30 30 29 28 29 30 31 32 33 33 33 32 30 29 28 27 27 27 27 26 26 25 22 20 19 21 24 27 29 31 32 33 33 33 33 32 32 31 31 31 31 30 29 27 25 23 22 21 20 20 20 20 20 19 19 21 23 25 26 26
Wind_Direction
309 309 309 309 309 308 308 308 308 308 307 307 307 307 307 307 307 306 306 306 305 304 303 303 303 303 303 302 302 302 302 303 303 303 302 301 299 298 297 296 295 294 294 294 295 295 295 295 295 295 295 294 294 294 293 293 292 292 291 290 289 289 288 287 287 286 285 284 283 282 281 279 277 275 272 269 266 263 260 258 256 253 252 251 250 249
309 309 308 308 308 308 307 307 308 308 307 307 307 307 307 307 306 306 306 305 305 304 304 303 304 304 304 304 304 304 305 305 305 304 303 302 300 299 298 297 297 297 297 297 297 297 297 297 297 297 297 297 296 296 296 295 294 294 293 292 292 291 290 290 289 288 287 286 284 283 282 280 279 277 275 272 270 269 266 263 259 256 254 251 249 248
309 308 308 308 308 308 307 307 308 308 307 307 307 307 307 307 306 306 306 306 305 305 305 305 305 306 306 306 307 307 307 307 307 306 304 303 302 301 300 300 300 300 300 299 299 298 298 298 298 297 297 297 297 297 296 296 296 295 294 294 293 293 292 291 290 289 288 287 286 284 283 282 280 279 277 274 272 272 272 270 268 264 261 257 254 252
308 308 308 308 308 308 308 308 307 307 307 307 307 307 307 307 307 307 307 306 306 306 306 307 308 308 308 309 309 309 309 308 308 307 306 305 304 303 302 302 301 301 300 299 298 298 297 297 296 296 296 296 296 295 295 295 294 294 294 293 293 292 291 291 290 289 288 287 286 285 284 283 281 280 278 276 274 272 271 270 270 268 266 263 259 256
308 308 308 308 308 308 308 308 307 307 307 307 307 307 308 308 308 308 308 308 307 307 308 309 310 310 310 310 310 310 310 310 310 309 308 307 306 304 303 302 301 300 299 297 296 295 295 295 294 294 293 293 293 293 292 292 292 291 291 291 290 290 289 289 289 288 287 286 285 285 284 283 282 281 279 277 275 271 267 264 263 263 264 262 261 259
309 309 309 309 308 308 307 307 307 307 307 308 308 309 309 309 309 309 309 309 309 309 310 311 311 312 312 312 311 312 312 312 312 311 310 308 306 304 303 301 300 298 297 296 295 294 294 293 293 292 292 291 290 290 289 289 289 288 288 288 288 287 287 287 287 286 286 285 284 284 283 282 282 281 280 278 276 273 268 263 260 259 258 257 256 256
309 309 309 308 308 307 307 307 307 308 309 309 310 311 311 311 310 310 309 310 310 310 311 312 313 313 313 313 313 313 313 313 313 312 310 307 305 303 302 301 300 299 298 297 296 296 295 294 294 293 292 291 290 289 288 288 287 287 286 286 286 286 286 286 286 285 285 284 284 283 282 282 281 281 280 279 277 275 272 268 264 260 258 255 254 253
309 309 309 308 308 307 307 308 309 310 311 312 312 312 312 311 311 310 310 310 310 312 313 313 313 314 313 313 313 314 314 314 313 312 309 307 305 303 302 302 301 301 300 299 299 298 298 297 297 296 295 293 292 290 289 288 287 286 286 285 285 285 285 285 285 285 285 284 283 283 282 281 281 280 280 279 278 277 275 273 270 266 263 260 257 255
309 309 308 308 308 308 309 309 311 312 313 313 313 312 312 312 311 311 310 310 311 312 314 314 314 314 313 313 313 314 314 314 313 312 310 308 306 304 304 304 304 304 303 303 302 302 301 301 301 300 299 297 296 294 292 290 289 288 287 286 285 285 285 285 285 285 284 284 283 282 282 281 280 280 279 279 278 277 276 275 273 271 268 265 262 260
309 309 309 309 310 310 311 311 312 313 314 314 313 312 311 311 311 311 310 310 311 313 314 314 314 314 314 313 313 313 314 314 313 312 311 309 308 307 307 307 307 307 307 306 305 305 305 306 306 305 304 302 299 297 295 293 291 289 288 287 287 286 286 285 285 284 284 283 283 282 282 281 280 280 279 279 278 278 277 276 275 273 271 269 267 264
310 310 311 311 311 312 312 312 312 313 313 313 312 311 310 311 311 310 310 311 312 313 314 314 314 314 313 313 313 313 314 314 314 314 312 311 309 309 309 310 311 311 310 309 308 309 309 309 309 308 307 305 302 300 297 295 293 291 289 288 287 287 286 286 285 285 284 284 283 282 282 281 281 280 280 279 279 278 278 277 276 275 273 272 270 268
311 312 312 312 311 311 311 312 312 313 312 312 311 310 310 310 310 310 310 311 312 314 314 314 314 313 313 313 314 314 315 316 317 316 314 312 311 311 312 312 313 313 312 311 311 312 312 312 312 310 308 306 304 301 299 296 293 291 289 288 287 287 286 286 285 285 284 284 283 283 282 282 282 282 281 281 280 280 279 278 277 276 275 273 271 270
312 312 310 309 308 308 309 311 311 311 311 311 311 311 310 310 310 309 310 311 312 314 314 314 313 313 313 314 315 316 318 319 319 317 315 313 313 313 314 315 315 315 315 314 314 315 315 314 313 311 309 307 304 302 298 295 293 290 289 287 287 286 286 285 285 285 284 284 284 283 283 283 283 283 283 283 282 282 281 280 279 278 276 275 273 272
310 308 307 306 306 308 309 311 311 312 312 311 311 310 310 310 310 310 310 311 312 314 313 313 312 313 313 315 317 319 320 321 320 318 315 314 314 315 317 317 317 318 317 317 317 317 317 316 314 312 310 308 305 301 298 295 292 290 288 287 286 285 285 284 284 284 284 284 284 283 283 284 284 284 284 284 284 283 283 282 281 280 279 277 276 274
305 305 305 306 307 309 311 312 312 312 311 311 310 310 309 310 310 310 310 311 312 313 313 312 312 312 314 317 319 321 322 322 321 318 316 315 316 318 319 319 319 319 319 319 318 318 318 317 315 314 312 309 306 302 298 295 292 290 289 288 287 286 285 284 284 284 284 284 283 284 284 284 285 285 285 285 285 285 284 284 283 282 281 279 278 276
304 305 306 307 309 311 312 313 312 312 311 311 310 309 309 309 310 310 311 311 312 313 313 313 313 313 314 317 320 322 323 323 322 320 318 317 317 319 320 320 319 320 320 319 319 319 319 318 317 316 314 311 307 303 300 297 295 294 292 291 290 289 287 286 285 285 284 284 284 284 284 285 285 286 286 286 286 286 286 286 285 284 283 281 279 277
305 305 307 309 311 312 313 313 312 311 311 310 309 309 309 309 310 311 311 311 312 313 313 314 315 315 316 317 320 323 324 324 322 320 319 318 318 320 320 320 319 319 320 320 321 321 321 320 320 319 316 313 309 306 303 301 299 298 297 296 295 293 292 291 289 288 287 286 286 286 286 286 287 287 288 288 288 289 288 288 287 286 285 283 281 279
306 307 309 311 312 313 312 312 311 311 310 309 309 308 309 309 310 310 311 312 312 314 314 315 315 315 316 317 320 324 325 324 322 320 318 317 318 320 320 319 319 319 320 322 322 323 323 323 323 322 319 316 312 308 306 304 303 303 302 302 301 300 299 297 295 294 292 291 290 289 289 289 290 290 290 291 291 291 291 291 290 289 287 285 283 281
307 309 311 312 312 312 311 311 311 310 309 308 308 308 309 309 309 310 311 312 313 314 315 315 314 314 315 317 320 324 325 324 322 319 318 317 317 319 320 320 319 320 322 323 325 326 326 326 326 325 322 317 313 310 309 308 308 309 309 310 310 309 308 306 304 302 300 298 296 295 294 293 293 293 293 293 293 293 293 293 292 290 289 287 285 283
307 309 311 312 311 310 310 310 310 310 309 308 308 308 309 309 310 311 312 313 314 314 314 314 314 314 315 317 320 324 325 324 321 319 317 316 317 319 321 321 321 322 324 326 327 328 329 330 329 327 323 318 315 313 312 313 315 317 318 320 320 320 319 317 315 313 310 308 305 303 300 299 297 296 295 294 294 294 293 293 292 290 289 287 285 282
308 310 312 312 311 310 310 310 310 310 309 308 308 308 310 311 312 313 313 313 313 313 313 313 313 314 315 318 321 324 325 324 322 320 318 317 318 320 323 323 323 324 325 328 329 331 332 333 332 329 323 319 316 315 317 319 322 325 328 329 330 330 330 329 328 326 324 321 318 315 312 309 306 304 301 299 298 296 295 294 292 290 288 286 283 281
309 311 312 312 311 310 310 310 310 310 309 309 309 310 311 312 313 313 313 313 313 313 313 312 313 314 316 318 321 324 325 325 323 321 319 318 318 321 324 325 325 325 327 329 331 333 334 335 333 328 322 318 317 319 322 325 329 333 335 337 337 338 338 338 338 338 336 335 332 330 327 324 321 317 314 310 307 304 301 298 295 293 290 287 284 281
310 312 313 313 312 311 310 310 310 310 310 310 310 311 312 312 312 312 312 312 312 312 312 312 313 314 317 319 322 324 326 327 325 323 321 319 319 322 325 326 326 326 328 331 332 333 334 335 332 325 320 319 320 323 327 331 335 338 340 341 341 341 342 342 343 343 342 341 340 338 336 333 330 327 324 320 317 313 309 305 302 298 294 290 286 282
312 313 314 313 312 311 310 309 310 310 311 312 312 311 311 310 310 311 311 312 312 312 312 313 313 315 317 320 323 326 328 328 327 324 321 319 319 321 325 327 327 327 329 331 332 332 333 334 331 325 322 323 326 329 332 336 340 343 344 345 345 345 345 345 346 345 345 344 342 341 339 336 334 331 328 324 321 317 314 310 306 303 299 294 290 285
312 312 312 311 310 309 309 310 311 312 313 313 312 311 310 310 310 310 311 312 312 312 312 313 314 315 318 321 324 327 329 329 327 323 320 318 318 321 325 327 327 327 329 330 331 330 330 331 330 327 327 328 330 333 336 339 342 345 348 350 351 350 349 349 348 347 346 345 343 341 339 337 334 331 328 324 321 318 314 311 307 304 300 296 292 287
309 309 309 309 309 310 310 311 312 313 313 312 312 311 310 310 310 311 311 312 312 312 312 312 314 317 320 323 325 327 328 328 326 323 320 318 319 321 325 327 328 328 328 328 328 328 328 330 330 329 329 331 333 334 336 337 340 343 347 350 351 350 349 348 347 345 344 343 341 339 337 335 333 330 327 324 320 316 313 309 306 302 299 295 291 286
306 306 307 309 310 311 312 312 312 313 313 312 312 311 311 310 310 311 311 311 311 311 312 313 316 320 323 324 326 327 328 328 326 323 320 319 320 322 325 328 329 328 328 327 326 325 325 326 326 327 329 331 333 334 335 336 336 338 340 342 343 342 340 339 338 337 336 335 334 333 332 331 330 327 325 322 319 315 311 308 304 300 297 293 289 285
306 307 309 311 312 313 313 313 313 313 313 313 312 311 310 310 310 310 310 310 311 312 313 316 319 322 324 324 325 325 326 327 326 324 321 320 320 322 325 327 328 329 328 325 322 319 320 323 324 324 327 331 333 334 334 333 333 333 333 333 333 331 330 328 327 327 326 326 326 326 326 325 324 323 321 319 316 313 310 307 303 300 296 292 288 285
308 310 312 313 314 314 315 315 315 314 314 312 311 310 309 308 308 309 309 310 312 314 316 319 322 323 323 323 323 323 325 327 327 325 322 320 320 322 325 326 327 328 328 325 318 312 314 322 325 325 326 329 332 332 331 330 330 329 329 328 327 326 325 324 323 322 322 323 323 323 322 322 321 319 317 315 313 311 308 306 303 299 295 292 288 286
312 313 315 316 316 316 316 316 315 314 313 312 310 309 308 308 308 309 310 312 314 316 318 321 323 323 323 322 322 322 324 327 327 325 322 320 320 321 324 325 327 329 329 326 320 313 308 316 324 326 325 327 328 328 327 327 327 327 327 326 326 325 325 324 323 323 322 322 322 322 321 320 319 317 315 313 311 309 307 305 302 299 295 291 288 286
317 318 319 319 319 318 317 316 315 314 313 312 311 310 309 309 310 311 313 315 317 318 319 321 322 323 323 322 321 322 324 327 326 324 321 319 320 322 324 325 326 328 329 327 324 318 310 306 313 320 321 322 324 324 324 324 325 325 326 326 326 326 326 325 325 324 323 322 322 321 320 318 317 315 314 312 310 308 306 304 302 299 295 292 288 286
321 322 322 321 320 319 317 316 315 314 314 313 313 312 312 312 313 313 315 316 318 319 320 321 322 323 323 322 321 322 324 326 326 324 322 320 321 322 324 325 326 327 328 327 324 321 316 310 308 310 313 317 319 321 322 322 323 324 324 325 326 326 327 326 326 324 323 322 321 319 318 317 315 314 312 311 309 307 305 304 302 299 296 293 289 286
325 324 323 322 320 319 317 316 316 315 315 316 316 315 315 315 315 316 316 317 318 319 321 323 323 323 322 322 321 322 324 327 327 325 323 322 321 322 323 324 325 326 326 325 323 321 317 314 311 309 310 313 317 319 320 321 321 322 323 325 326 327 327 327 326 324 323 321 320 319 317 315 314 313 311 310 308 306 304 302 300 298 296 294 291 287
326 324 323 321 320 319 318 317 317 317 318 318 318 318 317 317 316 316 317 317 319 321 323 324 324 323 323 322 322 323 326 328 328 326 324 322 321 321 322 323 324 324 324 323 322 320 317 315 313 312 311 312 315 319 320 321 321 322 324 325 327 327 328 327 326 324 323 321 320 319 317 315 314 313 311 309 307 305 303 301 299 297 295 293 291 288
325 323 322 321 320 319 319 319 319 319 320 320 320 320 318 318 317 317 318 319 321 323 324 324 324 323 323 324 324 326 327 329 329 327 324 322 320 320 320 321 323 323 322 322 321 319 317 315 314 314 314 314 315 318 320 321 322 323 324 325 326 327 328 327 326 324 323 322 321 319 318 317 315 314 312 311 308 306 304 301 299 296 294 292 289 287
324 323 322 321 320 320 319 320 320 321 321 321 321 320 319 318 318 319 320 322 324 325 325 325 324 324 324 325 326 327 329 330 329 328 325 323 320 319 319 320 321 322 321 321 320 319 317 315 314 314 315 316 317 319 320 321 322 322 323 324 326 327 327 327 326 325 323 322 321 321 320 319 317 316 314 312 310 308 306 303 300 297 293 290 287 284
324 324 324 323 322 321 320 320 321 321 321 321 320 319 318 318 319 320 322 324 326 326 326 325 324 324 325 326 327 328 329 330 330 329 327 324 321 319 319 319 320 321 320 320 319 318 317 316 315 315 316 317 319 320 321 321 321 322 323 324 326 327 328 328 327 325 324 323 322 322 321 321 320 318 316 314 312 310 308 305 301 296 291 286 281 278
326 326 326 324 323 322 321 321 320 320 320 319 319 318 318 319 320 321 324 326 327 328 327 326 326 325 325 327 328 329 330 330 331 330 328 325 323 320 319 319 319 320 319 319 318 318 317 317 316 317 317 318 319 321 322 323 323 323 323 325 326 328 329 329 328 326 325 324 323 323 323 322 321 320 318 317 316 315 313 309 303 296 288 281 275 273
328 328 328 326 324 322 321 320 320 320 320 320 320 319 319 319 320 322 324 327 329 330 329 328 327 327 326 327 328 329 330 331 331 331 330 327 324 322 320 319 319 318 318 318 318 317 317 317 317 317 318 319 320 321 322 323 324 324 324 325 327 329 330 330 329 327 326 325 325 325 325 324 323 322 320 320 322 324 324 320 314 304 293 283 276 272
331 331 330 328 325 323 320 319 319 319 320 321 321 320 320 319 320 322 325 328 330 331 331 330 329 328 327 327 328 329 330 331 331 332 331 329 327 324 321 319 318 318 317 317 317 316 316 316 316 317 318 319 320 321 321 323 324 325 326 326 328 329 330 330 329 328 327 327 327 328 327 326 324 323 323 325 330 334 334 331 325 316 306 296 288 282
333 333 332 330 327 323 319 317 316 317 319 321 322 322 321 321 322 323 325 328 331 332 332 331 330 328 327 327 327 328 329 330 331 332 332 331 329 326 323 321 318 317 316 316 316 316 315 315 316 317 318 319 319 320 321 323 324 325 326 327 327 328 329 330 329 329 328 328 329 330 329 327 325 325 326 331 337 340 340 336 331 324 316 308 303 298
335 335 334 332 328 323 319 315 314 314 317 320 323 324 323 323 323 324 326 329 332 333 333 332 330 329 327 326 327 327 328 330 331 332 332 332 331 328 325 322 320 318 316 315 315 315 315 315 316 317 318 319 319 319 320 322 323 325 325 326 326 326 327 329 329 329 329 330 330 331 330 329 327 328 332 338 343 345 343 338 333 326 320 314 310 307
336 336 335 333 330 325 319 315 313 313 316 319 321 323 323 324 325 326 327 329 332 333 333 332 330 329 328 327 327 328 329 331 332 332 332 332 331 329 327 324 322 319 317 316 315 314 314 314 315 316 317 318 318 319 320 321 322 323 324 324 324 325 326 327 329 329 329 330 332 332 332 331 330 332 337 344 348 348 345 340 333 326 320 316 312 309
336 337 336 334 331 327 322 317 314 314 315 317 320 322 323 324 325 326 327 329 330 332 332 331 330 329 329 329 330 331 332 333 333 333 332 332 332 331 329 326 324 321 318 317 315 314 313 313 314 315 316 316 317 318 319 320 321 321 322 322 323 323 324 326 328 329 329 331 333 334 335 334 334 336 342 349 353 352 347 339 331 325 321 318 315 313
336 336 335 334 332 328 324 320 316 315 315 317 319 321 323 324 325 326 326 327 329 330 331 330 330 329 329 330 331 333 334 335 335 334 333 332 332 331 330 328 325 322 320 317 316 314 314 314 314 314 314 315 315 316 317 318 318 319 319 320 321 322 324 325 327 329 330 332 335 337 337 336 337 340 345 352 355 352 346 337 330 325 323 323 323 323
335 335 334 333 331 329 325 322 319 317 317 318 320 322 324 324 325 325 326 326 328 329 330 330 329 329 329 329 331 333 335 336 336 335 333 332 331 330 329 328 326 324 322 319 317 315 315 314 314 314 313 313 313 314 315 315 316 317 318 319 320 321 323 325 327 330 332 334 336 338 338 338 339 343 348 353 353 350 344 339 334 331 330 331 332 331
333 333 332 332 330 328 326 323 321 320 319 319 321 323 324 324 324 324 325 326 327 328 329 329 329 329 328 328 329 331 333 334 334 334 333 332 331 329 328 327 326 325 323 322 320 318 316 315 315 314 313 313 312 312 313 313 314 315 316 318 319 321 323 326 329 331 333 335 338 340 340 340 342 346 351 353 352 349 347 346 344 341 339 337 335 331
331 331 330 330 329 328 326 324 323 321 320 320 321 323 323 324 324 324 325 326 327 327 328 329 329 329 328 327 327 328 329 330 331 331 332 331 330 329 327 326 325 324 323 322 321 320 319 317 316 316 314 313 312 312 312 313 314 315 316 318 320 322 324 327 331 333 335 337 339 341 343 344 346 349 352 353 353 353 353 354 353 348 342 337 333 330
330 329 329 328 328 328 327 325 324 322 321 321 322 323 324 324 324 325 326 326 326 327 328 329 330 329 328 326 325 325 325 325 327 329 331 331 331 330 327 325 324 323 322 322 322 321 320 319 319 318 317 316 315 314 314 315 315 316 318 319 322 324 327 330 332 335 336 338 340 343 345 347 349 351 351 352 354 356 359 359 355 350 345 342 339 337
328 328 327 327 327 328 327 326 324 323 323 323 323 324 324 325 325 326 326 326 326 326 327 328 329 329 328 327 325 323 323 323 325 327 330 332 333 331 329 327 325 323 323 322 323 323 322 322 322 323 322 321 320 319 319 319 319 319 320 322 324 327 329 331 334 336 337 339 341 344 347 350 352 353 352 351 352 356 360 359 355 351 351 351 350 347
328 327 326 326 326 327 327 325 324 323 323 323 324 325 325 326 327 327 327 326 326 325 324 325 327 328 328 327 326 324 324 324 326 328 331 333 334 333 331 329 327 326 325 325 325 326 326 326 326 328 329 328 326 325 325 324 323 323 323 324 326 328 330 332 335 337 339 340 343 346 349 353 357 357 354 350 349 352 356 356 353 351 353 355 354 351